SL-16 DEB, 39853

Orbit data source: Space-Track

SL-16 DEB, 39853 is space debris in LEO originally from a launch on Fri, 25 Dec 1992 UTC launched from the Tyuratam Missile And Space Complex (TTMTR). Debris objects in space refer to the collection of defunct objects orbiting the Earth. Examples of debris include non-operational satellites, rocket bodies, and fragments generated from explosions, collisions, or faulty payload assembly.

Loading next visibility...
Identifier
39853, 1992-093LF
Orbit
LEO
Country
Flag of CISCIS
Related business
Manufacturer
Unknown
Mission
Spacecraft
Bus & Motor
Unknown
Mass
Unknown
Launch date (UTC)
1992-12-25 (33 years ago)
Launch vehicle
Unknown
Launch site
Tyuratam Missile And Space Complex (TTMTR)
Object type
Payload
Rocket body
Debris
Shape & HBR
Unknown shape, 0.1 m
Radar Cross Section
Small (<0.1 m²)

Expand to show TLE details & history
Last TLE update: 2 days ago

TLE from 2 days ago
0 SL-16 DEB
1 39853U 92093LF  25347.84801152  .00089099  00000-0  20191-2 0  9991
2 39853  71.2542 150.1053 0021173 197.5352 162.5111 15.42430301624543
Epoch: 2025-12-13T20:21Z
TLE epoch observation values (Epoch: 2025-12-13T20:21:08.195Z)
Latitude
0.00002°
Longitude
122.05176°
Altitude
455.271 km
Speed
7.632 km/s
True Right ascension
10h 00m 25s
True Declination
0° 00' 00"
Sunlit
Object was in daylight at epoch
Visualization orbit readout
Latitude
Unknown
Longitude
Unknown
Altitude
Unknown
Speed
Unknown
Apparent Right ascension
Unknown
Apparent Declination
Unknown
Sunlit
N/A
Visualization observer readout
Local Sidereal Time
15:11:06
Azimuth
Unknown
Elevation
Unknown
Doppler factor
Unknown
Orbital elements
Apogee altitude
451.144 km
Perigee altitude
422.285 km
Semi-major axis
6,814.851 km
Eccentricity
0.00212
Inclination
71.2542°
RAAN
150.1053°
Arg. of periapsis
197.5352°
True anomaly
162.58383°
Mean anomaly
162.5111°
Eccentric anomaly
162.54748°
Mean motion
3.85797 °/min
Orbital period
93.31 mins
BSTAR
0.0020191
Loading maneuver chart data...
Computing Atmospheric mass density...
Loading historical data...
Loading historical data...
Loading historical data...
Loading historical data...
Loading historical data...
Loading historical data...
Loading historical data...

Documentation

Showing up to 5 results
|